owner,sensor,date,latitude,longitude,vertical_datum,direction_of_sea_water_velocity,sea_water_speed,upward_sea_water_velocity,qcFlag 
TABS,ioos:station:wmo:42050:1,1999-03-01T00:00:00Z,28.8425,-94.2433,2.0,291.3233015,23.34828902,-99999.0,'11111222,11111222,99999999' 
TABS,ioos:station:wmo:42050:1,1999-03-01T00:30:00Z,28.8425,-94.2433,2.0,297.7073646,20.19570499,-99999.0,'11111222,11111222,99999999' 
TABS,ioos:station:wmo:42050:1,1999-03-01T01:00:00Z,28.8425,-94.2433,2.0,305.1956691,17.31539488,-99999.0,'11111222,11111222,99999999' 
TABS,ioos:station:wmo:42050:1,1999-03-01T01:30:00Z,28.8425,-94.2433,2.0,304.4575792,15.53577163,-99999.0,'11111222,11111222,99999999' 
TABS,ioos:station:wmo:42050:1,1999-03-01T02:00:00Z,28.8425,-94.2433,2.0,308.5297042,10.29031584,-99999.0,'11111222,11111222,99999999' 
TABS,ioos:station:wmo:42050:1,1999-03-01T02:30:00Z,28.8425,-94.2433,2.0,323.3405128,8.726058675,-99999.0,'11133222,11111222,99999999' 
TABS,ioos:station:wmo:42050:1,1999-03-01T03:00:00Z,28.8425,-94.2433,2.0,305.0829838,6.733275577,-99999.0,'11133222,11111222,99999999' 
TABS,ioos:station:wmo:42050:1,1999-03-01T03:30:00Z,28.8425,-94.2433,2.0,278.1817526,3.16218279,-99999.0,'11133222,11111222,99999999' 
TABS,ioos:station:wmo:42050:1,1999-03-01T04:00:00Z,28.8425,-94.2433,2.0,287.8754522,4.854327966,-99999.0,'11133222,11111222,99999999' 
TABS,ioos:station:wmo:42050:1,1999-03-01T04:30:00Z,28.8425,-94.2433,2.0,290.5036354,2.540964384,-99999.0,'11133222,11111222,99999999' 
TABS,ioos:station:wmo:42050:1,1999-03-01T05:00:00Z,28.8425,-94.2433,2.0,277.6623542,2.250088887,-99999.0,'11133222,11111222,99999999' 
TABS,ioos:station:wmo:42050:1,1999-03-01T05:30:00Z,28.8425,-94.2433,2.0,282.7140234,3.362439591,-99999.0,'11133222,11111222,99999999' 
TABS,ioos:station:wmo:42050:1,1999-03-01T06:00:00Z,28.8425,-94.2433,2.0,292.5975011,3.877692613,-99999.0,'11133222,11111222,99999999' 
TABS,ioos:station:wmo:42050:1,1999-03-01T06:30:00Z,28.8425,-94.2433,2.0,274.4217,1.945790328,-99999.0,'11133222,11111222,99999999' 
TABS,ioos:station:wmo:42050:1,1999-03-01T07:00:00Z,28.8425,-94.2433,2.0,274.7905404,1.796273921,-99999.0,'11133222,11111222,99999999' 
TABS,ioos:station:wmo:42050:1,1999-03-01T07:30:00Z,28.8425,-94.2433,2.0,251.4364954,1.413541651,-99999.0,'11133222,11111222,99999999' 
TABS,ioos:station:wmo:42050:1,1999-03-01T08:00:00Z,28.8425,-94.2433,2.0,201.7679908,3.208815981,-99999.0,'11133222,11111222,99999999' 
TABS,ioos:station:wmo:42050:1,1999-03-01T08:30:00Z,28.8425,-94.2433,2.0,196.1588372,5.892809177,-99999.0,'11133222,11111222,99999999' 
TABS,ioos:station:wmo:42050:1,1999-03-01T09:00:00Z,28.8425,-94.2433,2.0,194.9072355,9.251378276,-99999.0,'11133222,11111222,99999999' 
TABS,ioos:station:wmo:42050:1,1999-03-01T09:30:00Z,28.8425,-94.2433,2.0,200.6010761,14.80688016,-99999.0,'11111222,11111222,99999999' 
TABS,ioos:station:wmo:42050:1,1999-03-01T10:00:00Z,28.8425,-94.2433,2.0,209.2566241,19.80658476,-99999.0,'11111222,11111222,99999999' 
TABS,ioos:station:wmo:42050:1,1999-03-01T10:30:00Z,28.8425,-94.2433,2.0,210.9517751,25.19828764,-99999.0,'11111222,11111222,99999999' 
TABS,ioos:station:wmo:42050:1,1999-03-01T11:00:00Z,28.8425,-94.2433,2.0,216.347499,25.89907527,-99999.0,'11111222,11111222,99999999' 
TABS,ioos:station:wmo:42050:1,1999-03-01T11:30:00Z,28.8425,-94.2433,2.0,216.3197241,27.92528603,-99999.0,'11111222,11111222,99999999' 
TABS,ioos:station:wmo:42050:1,1999-03-01T12:00:00Z,28.8425,-94.2433,2.0,220.5019,28.22269477,-99999.0,'11111222,11111222,99999999' 
TABS,ioos:station:wmo:42050:1,1999-03-01T12:30:00Z,28.8425,-94.2433,2.0,222.5598555,29.73250914,-99999.0,'11111222,11111222,99999999' 
TABS,ioos:station:wmo:42050:1,1999-03-01T13:00:00Z,28.8425,-94.2433,2.0,231.5885912,26.6216303,-99999.0,'11111222,11111222,99999999' 
TABS,ioos:station:wmo:42050:1,1999-03-01T13:30:00Z,28.8425,-94.2433,2.0,236.3984207,25.04474396,-99999.0,'11111222,11111222,99999999' 
TABS,ioos:station:wmo:42050:1,1999-03-01T14:00:00Z,28.8425,-94.2433,2.0,241.2262859,24.14062965,-99999.0,'11111222,11111222,99999999' 
TABS,ioos:station:wmo:42050:1,1999-03-01T14:30:00Z,28.8425,-94.2433,2.0,250.8929255,20.49929267,-99999.0,'11111222,11111222,99999999' 
TABS,ioos:station:wmo:42050:1,1999-03-01T15:00:00Z,28.8425,-94.2433,2.0,259.8811218,19.52366001,-99999.0,'11111222,11111222,99999999' 
TABS,ioos:station:wmo:42050:1,1999-03-01T15:30:00Z,28.8425,-94.2433,2.0,272.0321086,20.87312147,-99999.0,'11111222,11111222,99999999' 
TABS,ioos:station:wmo:42050:1,1999-03-01T16:00:00Z,28.8425,-94.2433,2.0,276.5177239,19.64696669,-99999.0,'11111222,11111222,99999999' 
TABS,ioos:station:wmo:42050:1,1999-03-01T16:30:00Z,28.8425,-94.2433,2.0,282.2132714,18.29402361,-99999.0,'11111222,11111222,99999999' 
TABS,ioos:station:wmo:42050:1,1999-03-01T17:00:00Z,28.8425,-94.2433,2.0,288.8913605,17.48162464,-99999.0,'11111222,11111222,99999999' 
TABS,ioos:station:wmo:42050:1,1999-03-01T17:30:00Z,28.8425,-94.2433,2.0,303.1001649,19.92311472,-99999.0,'11111222,11111222,99999999' 
TABS,ioos:station:wmo:42050:1,1999-03-01T18:00:00Z,28.8425,-94.2433,2.0,303.8183219,17.392668,-99999.0,'11111222,11111222,99999999' 
TABS,ioos:station:wmo:42050:1,1999-03-01T18:30:00Z,28.8425,-94.2433,2.0,314.6281101,16.32744009,-99999.0,'11111222,11111222,99999999' 
TABS,ioos:station:wmo:42050:1,1999-03-01T19:00:00Z,28.8425,-94.2433,2.0,306.2815992,14.60077053,-99999.0,'11111222,11111222,99999999' 
TABS,ioos:station:wmo:42050:1,1999-03-01T19:30:00Z,28.8425,-94.2433,2.0,299.0710763,13.80974294,-99999.0,'11111222,11111222,99999999' 
TABS,ioos:station:wmo:42050:1,1999-03-01T20:00:00Z,28.8425,-94.2433,2.0,304.1175562,11.1608781,-99999.0,'11111222,11111222,99999999' 
TABS,ioos:station:wmo:42050:1,1999-03-01T20:30:00Z,28.8425,-94.2433,2.0,303.9981376,8.262378592,-99999.0,'11133222,11111222,99999999' 
TABS,ioos:station:wmo:42050:1,1999-03-01T21:00:00Z,28.8425,-94.2433,2.0,310.1234208,6.238052581,-99999.0,'11133222,11111222,99999999' 
TABS,ioos:station:wmo:42050:1,1999-03-01T21:30:00Z,28.8425,-94.2433,2.0,290.5695804,5.094801272,-99999.0,'11133222,11111222,99999999' 
TABS,ioos:station:wmo:42050:1,1999-03-01T22:00:00Z,28.8425,-94.2433,2.0,283.3021122,3.216286679,-99999.0,'11133222,11111222,99999999' 
TABS,ioos:station:wmo:42050:1,1999-03-01T22:30:00Z,28.8425,-94.2433,2.0,257.8250196,3.508917212,-99999.0,'11133222,11111222,99999999' 
TABS,ioos:station:wmo:42050:1,1999-03-01T23:00:00Z,28.8425,-94.2433,2.0,246.8231391,3.404776057,-99999.0,'11133222,11111222,99999999' 
TABS,ioos:station:wmo:42050:1,1999-03-01T23:30:00Z,28.8425,-94.2433,2.0,229.9361931,3.697742555,-99999.0,'11133222,11111222,99999999' 
TABS,ioos:station:wmo:42050:1,1999-03-02T00:00:00Z,28.8425,-94.2433,2.0,247.7778198,3.543162429,-99999.0,'11133222,11111222,99999999' 
TABS,ioos:station:wmo:42050:1,1999-03-02T00:30:00Z,28.8425,-94.2433,2.0,242.4573604,4.195473752,-99999.0,'11133222,11111222,99999999' 
TABS,ioos:station:wmo:42050:1,1999-03-02T01:00:00Z,28.8425,-94.2433,2.0,262.3545837,4.510088691,-99999.0,'11133222,11111222,99999999' 
TABS,ioos:station:wmo:42050:1,1999-03-02T01:30:00Z,28.8425,-94.2433,2.0,273.7157013,4.629730014,-99999.0,'11133222,11111222,99999999' 
TABS,ioos:station:wmo:42050:1,1999-03-02T02:00:00Z,28.8425,-94.2433,2.0,276.1661125,6.889854861,-99999.0,'11133222,11111222,99999999' 
TABS,ioos:station:wmo:42050:1,1999-03-02T02:30:00Z,28.8425,-94.2433,2.0,282.5201579,6.873441642,-99999.0,'11133222,11111222,99999999' 
TABS,ioos:station:wmo:42050:1,1999-03-02T03:00:00Z,28.8425,-94.2433,2.0,287.6721317,6.884889251,-99999.0,'11133222,11111222,99999999' 
TABS,ioos:station:wmo:42050:1,1999-03-02T03:30:00Z,28.8425,-94.2433,2.0,293.6423534,7.805088084,-99999.0,'11133222,11111222,99999999' 
TABS,ioos:station:wmo:42050:1,1999-03-02T04:00:00Z,28.8425,-94.2433,2.0,307.0946267,7.660058747,-99999.0,'11133222,11111222,99999999' 
TABS,ioos:station:wmo:42050:1,1999-03-02T04:30:00Z,28.8425,-94.2433,2.0,317.5247414,7.063780857,-99999.0,'11133222,11111222,99999999' 
TABS,ioos:station:wmo:42050:1,1999-03-02T05:00:00Z,28.8425,-94.2433,2.0,322.218609,7.540954847,-99999.0,'11133222,11111222,99999999' 
TABS,ioos:station:wmo:42050:1,1999-03-02T05:30:00Z,28.8425,-94.2433,2.0,319.7175208,5.072997142,-99999.0,'11133222,11111222,99999999' 
TABS,ioos:station:wmo:42050:1,1999-03-02T06:00:00Z,28.8425,-94.2433,2.0,303.6904097,5.3722714,-99999.0,'11133222,11111222,99999999' 
TABS,ioos:station:wmo:42050:1,1999-03-02T06:30:00Z,28.8425,-94.2433,2.0,293.9430146,5.864639801,-99999.0,'11133222,11111222,99999999' 
TABS,ioos:station:wmo:42050:1,1999-03-02T07:00:00Z,28.8425,-94.2433,2.0,282.4839183,4.117341375,-99999.0,'11133222,11111222,99999999' 
TABS,ioos:station:wmo:42050:1,1999-03-02T07:30:00Z,28.8425,-94.2433,2.0,270.0004209,5.21,-99999.0,'11133222,11111222,99999999' 
TABS,ioos:station:wmo:42050:1,1999-03-02T08:00:00Z,28.8425,-94.2433,2.0,262.8302329,4.807587753,-99999.0,'11133222,11111222,99999999' 
TABS,ioos:station:wmo:42050:1,1999-03-02T08:30:00Z,28.8425,-94.2433,2.0,235.56854,3.431107693,-99999.0,'11133222,11111222,99999999' 
TABS,ioos:station:wmo:42050:1,1999-03-02T09:00:00Z,28.8425,-94.2433,2.0,214.7025599,4.707366567,-99999.0,'11133222,11111222,99999999' 
TABS,ioos:station:wmo:42050:1,1999-03-02T09:30:00Z,28.8425,-94.2433,2.0,211.3343585,7.153355856,-99999.0,'11133222,11111222,99999999' 
TABS,ioos:station:wmo:42050:1,1999-03-02T10:00:00Z,28.8425,-94.2433,2.0,205.6277083,7.930157628,-99999.0,'11133222,11111222,99999999' 
TABS,ioos:station:wmo:42050:1,1999-03-02T10:30:00Z,28.8425,-94.2433,2.0,206.9682624,9.525885786,-99999.0,'11133222,11111222,99999999' 
TABS,ioos:station:wmo:42050:1,1999-03-02T11:00:00Z,28.8425,-94.2433,2.0,188.1368661,11.5866518,-99999.0,'11111222,11111222,99999999' 
TABS,ioos:station:wmo:42050:1,1999-03-02T11:30:00Z,28.8425,-94.2433,2.0,193.6462975,16.40306374,-99999.0,'11111222,11111222,99999999' 
TABS,ioos:station:wmo:42050:1,1999-03-02T12:00:00Z,28.8425,-94.2433,2.0,198.8786822,17.95595166,-99999.0,'11111222,11111222,99999999' 
TABS,ioos:station:wmo:42050:1,1999-03-02T12:30:00Z,28.8425,-94.2433,2.0,203.9083321,17.27206126,-99999.0,'11111222,11111222,99999999' 
TABS,ioos:station:wmo:42050:1,1999-03-02T13:00:00Z,28.8425,-94.2433,2.0,205.1638057,16.46238136,-99999.0,'11111222,11111222,99999999' 
TABS,ioos:station:wmo:42050:1,1999-03-02T13:30:00Z,28.8425,-94.2433,2.0,207.6880787,20.53104966,-99999.0,'11111222,11111222,99999999' 
TABS,ioos:station:wmo:42050:1,1999-03-02T14:00:00Z,28.8425,-94.2433,2.0,238.5739273,28.28961117,-99999.0,'11111222,11111222,99999999' 
TABS,ioos:station:wmo:42050:1,1999-03-02T14:30:00Z,28.8425,-94.2433,2.0,244.3421881,25.1276123,-99999.0,'11111222,11111222,99999999' 
TABS,ioos:station:wmo:42050:1,1999-03-02T15:00:00Z,28.8425,-94.2433,2.0,249.7362958,27.9497907,-99999.0,'11111222,11111222,99999999' 
TABS,ioos:station:wmo:42050:1,1999-03-02T15:30:00Z,28.8425,-94.2433,2.0,258.5446448,24.01842001,-99999.0,'11111222,11111222,99999999' 
TABS,ioos:station:wmo:42050:1,1999-03-02T16:00:00Z,28.8425,-94.2433,2.0,261.3522291,23.81066988,-99999.0,'11111222,11111222,99999999' 
TABS,ioos:station:wmo:42050:1,1999-03-02T16:30:00Z,28.8425,-94.2433,2.0,268.1406361,22.81200561,-99999.0,'11111222,11111222,99999999' 
TABS,ioos:station:wmo:42050:1,1999-03-02T17:00:00Z,28.8425,-94.2433,2.0,271.0955739,23.5443008,-99999.0,'11111222,11111222,99999999' 
TABS,ioos:station:wmo:42050:1,1999-03-02T17:30:00Z,28.8425,-94.2433,2.0,278.1867868,23.03472162,-99999.0,'11111222,11111222,99999999' 
TABS,ioos:station:wmo:42050:1,1999-03-02T18:00:00Z,28.8425,-94.2433,2.0,280.8689208,22.91096681,-99999.0,'11111222,11111222,99999999' 
TABS,ioos:station:wmo:42050:1,1999-03-02T18:30:00Z,28.8425,-94.2433,2.0,284.3588286,19.83972782,-99999.0,'11111222,11111222,99999999' 
TABS,ioos:station:wmo:42050:1,1999-03-02T19:00:00Z,28.8425,-94.2433,2.0,288.8363547,20.78299786,-99999.0,'11111222,11111222,99999999' 
TABS,ioos:station:wmo:42050:1,1999-03-02T19:30:00Z,28.8425,-94.2433,2.0,292.3555491,19.98175167,-99999.0,'11111222,11111222,99999999' 
TABS,ioos:station:wmo:42050:1,1999-03-02T20:00:00Z,28.8425,-94.2433,2.0,296.7590691,18.52369294,-99999.0,'11111222,11111222,99999999' 
TABS,ioos:station:wmo:42050:1,1999-03-02T20:30:00Z,28.8425,-94.2433,2.0,298.7851886,15.471784,-99999.0,'11111222,11111222,99999999' 
TABS,ioos:station:wmo:42050:1,1999-03-02T21:00:00Z,28.8425,-94.2433,2.0,305.8197952,9.927668407,-99999.0,'11133222,11111222,99999999' 
TABS,ioos:station:wmo:42050:1,1999-03-02T21:30:00Z,28.8425,-94.2433,2.0,305.156161,8.023590219,-99999.0,'11133222,11111222,99999999' 
TABS,ioos:station:wmo:42050:1,1999-03-02T22:00:00Z,28.8425,-94.2433,2.0,300.9452516,5.211842285,-99999.0,'11133222,11111222,99999999' 
TABS,ioos:station:wmo:42050:1,1999-03-02T22:30:00Z,28.8425,-94.2433,2.0,280.253995,4.999849998,-99999.0,'11133222,11111222,99999999' 
TABS,ioos:station:wmo:42050:1,1999-03-02T23:00:00Z,28.8425,-94.2433,2.0,300.8508727,1.735569071,-99999.0,'11133222,11111222,99999999' 
TABS,ioos:station:wmo:42050:1,1999-03-02T23:30:00Z,28.8425,-94.2433,2.0,179.9997895,1.49,-99999.0,'11133222,11111222,99999999' 
TABS,ioos:station:wmo:42050:1,1999-03-03T00:00:00Z,28.8425,-94.2433,2.0,171.7925923,1.050761629,-99999.0,'11133222,11111222,99999999' 
TABS,ioos:station:wmo:42050:1,1999-03-03T00:30:00Z,28.8425,-94.2433,2.0,146.9354694,3.555840266,-99999.0,'11133222,11111222,99999999' 
TABS,ioos:station:wmo:42050:1,1999-03-03T01:00:00Z,28.8425,-94.2433,2.0,152.5496425,8.39520101,-99999.0,'11133222,11111222,99999999' 
TABS,ioos:station:wmo:42050:1,1999-03-03T01:30:00Z,28.8425,-94.2433,2.0,163.3123445,9.33305952,-99999.0,'11133222,11111222,99999999' 
TABS,ioos:station:wmo:42050:1,1999-03-03T02:00:00Z,28.8425,-94.2433,2.0,161.2938243,10.69494273,-99999.0,'11111222,11111222,99999999' 
TABS,ioos:station:wmo:42050:1,1999-03-03T02:30:00Z,28.8425,-94.2433,2.0,164.4784689,11.1361259,-99999.0,'11111222,11111222,99999999' 
TABS,ioos:station:wmo:42050:1,1999-03-03T03:00:00Z,28.8425,-94.2433,2.0,163.6352844,11.6416193,-99999.0,'11111222,11111222,99999999' 
TABS,ioos:station:wmo:42050:1,1999-03-03T03:30:00Z,28.8425,-94.2433,2.0,165.8017272,14.59585215,-99999.0,'11111222,11111222,99999999' 
TABS,ioos:station:wmo:42050:1,1999-03-03T04:00:00Z,28.8425,-94.2433,2.0,160.1837882,17.58104661,-99999.0,'11111222,11111222,99999999' 
TABS,ioos:station:wmo:42050:1,1999-03-03T04:30:00Z,28.8425,-94.2433,2.0,158.4604706,17.45925829,-99999.0,'11111222,11111222,99999999' 
TABS,ioos:station:wmo:42050:1,1999-03-03T05:00:00Z,28.8425,-94.2433,2.0,169.2632536,20.77366121,-99999.0,'11111222,11111222,99999999' 
TABS,ioos:station:wmo:42050:1,1999-03-03T05:30:00Z,28.8425,-94.2433,2.0,182.0314772,20.87312147,-99999.0,'11111222,11111222,99999999' 
TABS,ioos:station:wmo:42050:1,1999-03-03T06:00:00Z,28.8425,-94.2433,2.0,191.7824124,21.15576754,-99999.0,'11111222,11111222,99999999' 
TABS,ioos:station:wmo:42050:1,1999-03-03T06:30:00Z,28.8425,-94.2433,2.0,198.5774751,17.76573106,-99999.0,'11111222,11111222,99999999' 
TABS,ioos:station:wmo:42050:1,1999-03-03T07:00:00Z,28.8425,-94.2433,2.0,197.0511755,21.34843554,-99999.0,'11111222,11111222,99999999' 
TABS,ioos:station:wmo:42050:1,1999-03-03T07:30:00Z,28.8425,-94.2433,2.0,198.0663773,21.15291233,-99999.0,'11111222,11111222,99999999' 
TABS,ioos:station:wmo:42050:1,1999-03-03T08:00:00Z,28.8425,-94.2433,2.0,206.9616134,18.72528237,-99999.0,'11111222,11111222,99999999' 
TABS,ioos:station:wmo:42050:1,1999-03-03T08:30:00Z,28.8425,-94.2433,2.0,213.5681317,16.98218478,-99999.0,'11111222,11111222,99999999' 
TABS,ioos:station:wmo:42050:1,1999-03-03T09:00:00Z,28.8425,-94.2433,2.0,215.5957164,14.84366868,-99999.0,'11111222,11111222,99999999' 
TABS,ioos:station:wmo:42050:1,1999-03-03T09:30:00Z,28.8425,-94.2433,2.0,198.8410405,13.37677091,-99999.0,'11111222,11111222,99999999' 
TABS,ioos:station:wmo:42050:1,1999-03-03T10:00:00Z,28.8425,-94.2433,2.0,233.2512669,13.20402969,-99999.0,'11111222,11111222,99999999' 
TABS,ioos:station:wmo:42050:1,1999-03-03T10:30:00Z,28.8425,-94.2433,2.0,227.2204941,16.24029864,-99999.0,'11111222,11111222,99999999' 
TABS,ioos:station:wmo:42050:1,1999-03-03T11:00:00Z,28.8425,-94.2433,2.0,208.9500508,16.01070267,-99999.0,'11111222,11111222,99999999' 
TABS,ioos:station:wmo:42050:1,1999-03-03T11:30:00Z,28.8425,-94.2433,2.0,235.7708141,12.97778486,-99999.0,'11111222,11111222,99999999' 
TABS,ioos:station:wmo:42050:1,1999-03-03T12:00:00Z,28.8425,-94.2433,2.0,238.9344868,13.56555933,-99999.0,'11111222,11111222,99999999' 
TABS,ioos:station:wmo:42050:1,1999-03-03T12:30:00Z,28.8425,-94.2433,2.0,237.6613605,10.58107745,-99999.0,'11111222,11111222,99999999' 
TABS,ioos:station:wmo:42050:1,1999-03-03T13:00:00Z,28.8425,-94.2433,2.0,262.2737703,14.43099442,-99999.0,'11111222,11111222,99999999' 
TABS,ioos:station:wmo:42050:1,1999-03-03T13:30:00Z,28.8425,-94.2433,2.0,266.6485943,15.22603363,-99999.0,'11111222,11111222,99999999' 
TABS,ioos:station:wmo:42050:1,1999-03-03T14:00:00Z,28.8425,-94.2433,2.0,286.8094196,16.49475674,-99999.0,'11111222,11111222,99999999' 
TABS,ioos:station:wmo:42050:1,1999-03-03T14:30:00Z,28.8425,-94.2433,2.0,286.8598584,15.41244303,-99999.0,'11111222,11111222,99999999' 
TABS,ioos:station:wmo:42050:1,1999-03-03T15:00:00Z,28.8425,-94.2433,2.0,293.9628539,14.67479812,-99999.0,'11111222,11111222,99999999' 
TABS,ioos:station:wmo:42050:1,1999-03-03T15:30:00Z,28.8425,-94.2433,2.0,295.9548223,12.5897776,-99999.0,'11111222,11111222,99999999' 
TABS,ioos:station:wmo:42050:1,1999-03-03T16:00:00Z,28.8425,-94.2433,2.0,289.3723969,11.21493647,-99999.0,'11111222,11111222,99999999' 
TABS,ioos:station:wmo:42050:1,1999-03-03T16:30:00Z,28.8425,-94.2433,2.0,296.3114094,14.12314413,-99999.0,'11111222,11111222,99999999' 
TABS,ioos:station:wmo:42050:1,1999-03-03T17:00:00Z,28.8425,-94.2433,2.0,290.8884988,12.11630307,-99999.0,'11111222,11111222,99999999' 
TABS,ioos:station:wmo:42050:1,1999-03-03T17:30:00Z,28.8425,-94.2433,2.0,286.1594686,11.78561835,-99999.0,'11111222,11111222,99999999' 
TABS,ioos:station:wmo:42050:1,1999-03-03T18:00:00Z,28.8425,-94.2433,2.0,277.1106365,9.613932598,-99999.0,'11133222,11111222,99999999' 
TABS,ioos:station:wmo:42050:1,1999-03-03T18:30:00Z,28.8425,-94.2433,2.0,284.433656,10.1503596,-99999.0,'11111222,11111222,99999999' 
TABS,ioos:station:wmo:42050:1,1999-03-03T19:00:00Z,28.8425,-94.2433,2.0,288.1512183,9.566007527,-99999.0,'11133222,11111222,99999999' 
TABS,ioos:station:wmo:42050:1,1999-03-03T19:30:00Z,28.8425,-94.2433,2.0,276.0397521,9.884862164,-99999.0,'11133222,11111222,99999999' 
TABS,ioos:station:wmo:42050:1,1999-03-03T20:00:00Z,28.8425,-94.2433,2.0,259.7101412,13.32428234,-99999.0,'11111222,11111222,99999999' 
TABS,ioos:station:wmo:42050:1,1999-03-03T20:30:00Z,28.8425,-94.2433,2.0,257.7438731,16.15824867,-99999.0,'11111222,11111222,99999999' 
TABS,ioos:station:wmo:42050:1,1999-03-03T21:00:00Z,28.8425,-94.2433,2.0,258.3928725,17.79385568,-99999.0,'11111222,11111222,99999999' 
TABS,ioos:station:wmo:42050:1,1999-03-03T21:30:00Z,28.8425,-94.2433,2.0,256.2186362,16.87579628,-99999.0,'11111222,11111222,99999999' 
TABS,ioos:station:wmo:42050:1,1999-03-03T22:00:00Z,28.8425,-94.2433,2.0,255.5788397,15.53960746,-99999.0,'11111222,11111222,99999999' 
TABS,ioos:station:wmo:42050:1,1999-03-03T22:30:00Z,28.8425,-94.2433,2.0,257.1132891,12.68959416,-99999.0,'11111222,11111222,99999999' 
TABS,ioos:station:wmo:42050:1,1999-03-03T23:00:00Z,28.8425,-94.2433,2.0,257.5607467,11.74571411,-99999.0,'11111222,11111222,99999999' 
TABS,ioos:station:wmo:42050:1,1999-03-03T23:30:00Z,28.8425,-94.2433,2.0,258.1611977,12.33230716,-99999.0,'11111222,11111222,99999999' 
TABS,ioos:station:wmo:42050:1,1999-03-04T00:00:00Z,28.8425,-94.2433,2.0,261.1883379,10.70635325,-99999.0,'11111222,11111222,99999999' 
TABS,ioos:station:wmo:42050:1,1999-03-04T00:30:00Z,28.8425,-94.2433,2.0,264.5046197,12.42710747,-99999.0,'11111222,11111222,99999999' 
TABS,ioos:station:wmo:42050:1,1999-03-04T01:00:00Z,28.8425,-94.2433,2.0,272.9940738,14.16933661,-99999.0,'11111222,11111222,99999999' 
TABS,ioos:station:wmo:42050:1,1999-03-04T01:30:00Z,28.8425,-94.2433,2.0,284.8462801,15.1042014,-99999.0,'11111222,11111222,99999999' 
TABS,ioos:station:wmo:42050:1,1999-03-04T02:00:00Z,28.8425,-94.2433,2.0,289.3807135,14.37450869,-99999.0,'11111222,11111222,99999999' 
TABS,ioos:station:wmo:42050:1,1999-03-04T02:30:00Z,28.8425,-94.2433,2.0,284.929523,16.18636772,-99999.0,'11111222,11111222,99999999' 
TABS,ioos:station:wmo:42050:1,1999-03-04T03:00:00Z,28.8425,-94.2433,2.0,291.0329285,16.60637227,-99999.0,'11111222,11111222,99999999' 
TABS,ioos:station:wmo:42050:1,1999-03-04T03:30:00Z,28.8425,-94.2433,2.0,290.6182548,17.35136018,-99999.0,'11111222,11111222,99999999' 
TABS,ioos:station:wmo:42050:1,1999-03-04T04:00:00Z,28.8425,-94.2433,2.0,293.8192999,16.6151768,-99999.0,'11111222,11111222,99999999' 
TABS,ioos:station:wmo:42050:1,1999-03-04T04:30:00Z,28.8425,-94.2433,2.0,305.3459464,16.99201283,-99999.0,'11111222,11111222,99999999' 
TABS,ioos:station:wmo:42050:1,1999-03-04T05:00:00Z,28.8425,-94.2433,2.0,315.3774207,16.11531259,-99999.0,'11111222,11111222,99999999' 
TABS,ioos:station:wmo:42050:1,1999-03-04T05:30:00Z,28.8425,-94.2433,2.0,310.9393866,16.37528015,-99999.0,'11111222,11111222,99999999' 
TABS,ioos:station:wmo:42050:1,1999-03-04T06:00:00Z,28.8425,-94.2433,2.0,308.3548271,17.29180442,-99999.0,'11111222,11111222,99999999' 
TABS,ioos:station:wmo:42050:1,1999-03-04T06:30:00Z,28.8425,-94.2433,2.0,310.2701802,14.06275222,-99999.0,'11111222,11111222,99999999' 
TABS,ioos:station:wmo:42050:1,1999-03-04T07:00:00Z,28.8425,-94.2433,2.0,304.3170293,18.76662996,-99999.0,'11111222,11111222,99999999' 
TABS,ioos:station:wmo:42050:1,1999-03-04T07:30:00Z,28.8425,-94.2433,2.0,321.4177505,15.05672607,-99999.0,'11111222,11111222,99999999' 
TABS,ioos:station:wmo:42050:1,1999-03-04T08:00:00Z,28.8425,-94.2433,2.0,325.8585052,15.12714448,-99999.0,'11111222,11111222,99999999' 
TABS,ioos:station:wmo:42050:1,1999-03-04T08:30:00Z,28.8425,-94.2433,2.0,334.218581,14.39267869,-99999.0,'11111222,11111222,99999999' 
TABS,ioos:station:wmo:42050:1,1999-03-04T09:00:00Z,28.8425,-94.2433,2.0,334.10117,11.92799229,-99999.0,'11111222,11111222,99999999' 
TABS,ioos:station:wmo:42050:1,1999-03-04T09:30:00Z,28.8425,-94.2433,2.0,334.4863997,10.72598713,-99999.0,'11111222,11111222,99999999' 
TABS,ioos:station:wmo:42050:1,1999-03-04T10:00:00Z,28.8425,-94.2433,2.0,343.8745712,6.984819253,-99999.0,'11133222,11111222,99999999' 
TABS,ioos:station:wmo:42050:1,1999-03-04T10:30:00Z,28.8425,-94.2433,2.0,318.2645918,5.588139225,-99999.0,'11133222,11111222,99999999' 
TABS,ioos:station:wmo:42050:1,1999-03-04T11:00:00Z,28.8425,-94.2433,2.0,281.251076,3.792888082,-99999.0,'11133222,11111222,99999999' 
TABS,ioos:station:wmo:42050:1,1999-03-04T11:30:00Z,28.8425,-94.2433,2.0,250.102394,5.700280695,-99999.0,'11133222,11111222,99999999' 
TABS,ioos:station:wmo:42050:1,1999-03-04T12:00:00Z,28.8425,-94.2433,2.0,224.0220378,6.216373541,-99999.0,'11133222,11111222,99999999' 
TABS,ioos:station:wmo:42050:1,1999-03-04T12:30:00Z,28.8425,-94.2433,2.0,222.5355278,9.703406618,-99999.0,'11133222,11111222,99999999' 
TABS,ioos:station:wmo:42050:1,1999-03-04T13:00:00Z,28.8425,-94.2433,2.0,217.8620095,11.89378409,-99999.0,'11111222,11111222,99999999' 
TABS,ioos:station:wmo:42050:1,1999-03-04T13:30:00Z,28.8425,-94.2433,2.0,222.5292087,14.76396966,-99999.0,'11111222,11111222,99999999' 
TABS,ioos:station:wmo:42050:1,1999-03-04T14:00:00Z,28.8425,-94.2433,2.0,245.637183,10.47253551,-99999.0,'11111222,11111222,99999999' 
TABS,ioos:station:wmo:42050:1,1999-03-04T14:30:00Z,28.8425,-94.2433,2.0,236.1532161,15.24321816,-99999.0,'11111222,11111222,99999999' 
TABS,ioos:station:wmo:42050:1,1999-03-04T15:00:00Z,28.8425,-94.2433,2.0,242.6957657,15.26019659,-99999.0,'11111222,11111222,99999999' 
TABS,ioos:station:wmo:42050:1,1999-03-04T15:30:00Z,28.8425,-94.2433,2.0,241.6539517,17.27078458,-99999.0,'11111222,11111222,99999999' 
TABS,ioos:station:wmo:42050:1,1999-03-04T16:00:00Z,28.8425,-94.2433,2.0,250.9239081,16.40059755,-99999.0,'11111222,11111222,99999999' 